EHI
0 0 0 0 0 0 0 0 0 1 3 8 13 16 18 20 21 26 32 34 32 32 33 31 30 30 30 30 30 31 28 27 29 30 27 23 22 21 20 19 19 19 20 19
0 0 0 0 0 0 0 0 0 1 5 10 15 19 23 25 26 30 35 35 33 33 34 32 30 30 30 30 32 32 30 28 28 29 28 27 26 25 25 23 20 20 20 18
0 0 0 0 0 0 1 1 2 4 8 12 16 22 28 31 32 34 36 36 36 37 36 34 32 32 31 31 31 32 30 28 27 28 30 31 32 32 31 28 24 22 20 18
0 0 0 0 0 1 3 5 6 10 13 14 15 20 27 31 33 35 35 35 37 38 37 35 35 35 34 32 31 30 29 28 27 28 31 33 35 35 33 31 29 26 22 20
0 0 0 1 1 3 6 9 12 15 18 16 14 17 23 27 30 32 33 33 33 33 31 30 32 34 36 34 31 29 29 29 28 28 31 34 36 36 33 31 31 29 26 25
0 0 1 2 3 3 5 11 15 18 19 16 15 20 23 23 24 26 29 30 30 30 29 29 32 35 36 33 30 28 29 30 30 30 30 31 33 35 33 30 29 27 25 25
0 0 1 3 5 5 9 13 17 20 20 20 22 26 25 20 18 20 24 27 30 32 33 35 37 38 36 32 30 29 30 31 31 29 28 27 29 32 31 28 26 25 23 22
0 1 3 6 8 11 16 18 17 20 22 24 26 25 21 16 15 17 21 25 30 34 36 38 39 39 36 33 31 31 30 29 27 25 25 25 26 26 25 23 24 25 22 20
1 3 6 9 10 13 17 17 16 19 22 24 23 20 16 14 15 17 20 23 27 30 32 33 34 35 33 30 29 28 27 26 23 20 19 20 20 19 18 19 21 24 22 20
3 5 9 11 11 12 13 15 17 18 19 19 19 16 13 13 15 17 19 21 24 25 25 25 27 27 25 23 23 24 23 22 19 16 13 13 13 13 14 15 17 21 21 19
6 7 10 11 12 12 12 14 16 16 16 15 14 11 9 9 11 14 16 17 20 21 19 18 20 21 20 19 20 21 19 16 14 13 11 11 10 10 9 10 11 14 16 16
8 8 10 10 10 9 10 10 11 12 11 11 10 7 7 7 10 12 13 14 15 15 15 15 16 16 16 17 19 20 18 14 11 11 11 11 10 8 6 6 5 5 7 7
9 8 8 7 6 6 6 6 6 6 6 6 6 6 6 7 9 10 10 10 10 11 12 12 12 12 11 12 15 17 17 15 11 10 11 12 11 9 6 4 3 2 1 1
6 5 4 4 4 4 4 4 4 3 2 2 3 3 4 5 6 7 7 8 7 8 9 9 9 9 8 9 12 14 15 13 12 10 10 11 12 11 8 6 5 4 3 1
2 2 2 2 3 3 3 3 2 1 0 0 1 1 2 3 3 4 5 6 7 7 7 8 8 8 8 9 11 14 14 11 11 10 9 9 10 11 10 9 8 7 6 5
0 0 1 2 3 3 2 1 1 0 0 0 0 0 2 2 2 2 4 6 7 6 5 6 7 8 9 10 11 12 12 9 8 10 9 7 8 10 11 11 9 9 8 7
0 0 1 2 3 2 1 0 0 0 0 0 0 0 1 2 2 2 2 4 5 5 4 5 7 9 9 9 9 9 7 5 5 7 8 7 7 9 10 10 10 10 9 8
0 0 1 2 2 1 0 0 0 0 0 0 0 0 1 1 1 2 2 2 3 4 4 5 7 8 8 7 7 6 5 5 5 6 6 6 5 6 7 8 9 11 10 8
0 0 0 1 1 0 0 0 0 0 0 0 0 0 1 1 1 2 3 3 3 3 4 5 6 7 7 6 6 7 7 7 7 6 6 4 4 4 4 6 9 11 9 8
0 0 0 0 0 0 0 0 0 0 0 0 0 0 0 0 0 1 2 2 2 2 2 3 4 6 6 5 5 6 7 8 7 6 6 4 3 4 5 7 8 9 8 8
0 0 0 0 0 0 0 0 0 0 0 0 0 0 0 0 0 0 1 1 1 1 1 1 2 3 3 3 3 5 6 7 7 7 6 5 4 5 7 8 7 7 7 7
0 0 0 0 0 0 0 0 0 0 0 0 0 0 0 0 0 0 0 0 0 0 0 0 0 1 1 1 1 3 5 6 6 7 8 7 6 6 7 7 6 6 6 6
0 0 0 0 0 0 0 0 0 0 0 0 0 0 0 0 0 0 0 0 0 0 0 0 0 0 0 0 0 1 3 4 5 6 8 8 8 7 5 4 4 3 3 3
0 0 0 0 0 0 0 0 0 0 0 0 0 0 0 0 0 0 0 0 0 0 0 0 0 0 0 0 0 0 1 2 4 4 5 6 7 6 4 2 1 1 1 1
0 0 0 0 0 0 0 0 1 0 0 0 0 0 0 0 0 0 0 0 0 0 0 0 0 0 0 0 0 0 0 1 2 2 2 3 4 3 2 2 1 1 1 1
0 0 0 0 0 0 0 0 0 0 0 0 0 0 0 0 0 0 0 0 0 0 0 0 0 0 0 0 0 0 0 1 2 2 1 1 1 2 2 3 3 2 2 2
0 0 0 0 0 0 0 0 0 0 0 0 0 0 0 0 0 0 0 0 0 0 0 0 0 0 0 0 0 0 1 2 2 2 1 1 2 2 2 3 3 3 3 3
Wind_Speed
9 7 7 9 10 11 13 12 12 8 7 4 2 2 3 4 6 6 7 6 6 6 6 6 6 6 6 6 6 6 7 7 7 7 7 6 6 6 5 6 6 5 5 5
10 9 8 9 9 10 11 11 11 9 6 1 1 3 4 4 5 6 6 6 5 5 4 5 5 5 5 6 6 6 6 6 6 6 6 6 6 6 6 6 6 6 6 5
11 11 11 12 9 10 9 9 10 10 4 4 3 4 4 4 5 5 5 4 4 3 4 4 4 4 5 5 5 6 6 6 6 6 6 6 7 6 6 6 6 6 6 6
8 10 15 5 3 6 7 5 5 2 3 3 3 4 3 3 4 4 3 3 3 2 3 4 4 4 4 5 5 6 6 6 6 6 6 7 7 7 7 6 6 6 6 6
8 11 10 5 5 6 6 5 3 4 4 4 5 5 5 4 3 3 2 2 1 2 2 2 3 3 4 4 5 6 6 6 6 6 6 6 7 7 6 6 6 6 6 6
8 11 11 5 5 2 5 7 4 4 4 5 6 5 4 4 3 3 3 2 1 1 2 2 2 3 3 4 4 5 5 5 5 6 6 6 6 6 5 6 6 6 6 6
10 10 4 5 2 5 8 3 4 3 3 3 2 2 4 2 2 2 2 2 1 1 1 1 2 2 3 3 3 3 3 3 4 4 5 5 5 5 4 5 5 5 5 5
8 9 4 4 3 2 4 4 3 3 2 1 3 3 2 2 1 1 1 1 1 1 1 1 1 2 2 2 1 1 2 2 3 4 4 4 4 4 4 5 5 6 6 5
2 2 6 4 3 4 2 2 2 2 3 3 3 2 2 1 1 1 1 1 1 1 1 1 0 1 1 1 1 1 1 2 2 3 3 3 4 5 4 5 5 5 5 5
2 3 3 3 3 3 3 3 3 3 3 2 2 1 1 1 1 1 1 1 1 1 1 1 1 1 1 2 2 2 2 2 3 3 3 3 3 3 4 4 5 5 5 5
2 3 2 3 2 3 4 4 5 5 4 3 2 1 1 1 1 2 1 1 1 2 2 2 2 2 2 2 3 3 3 3 3 3 3 3 3 2 4 4 4 5 4 4
1 2 1 2 2 3 3 4 4 3 3 2 1 1 1 1 2 2 2 2 2 3 3 3 3 3 3 3 4 4 4 4 4 4 3 3 3 3 2 3 4 5 4 4
1 1 3 3 3 3 3 3 3 2 2 3 2 2 2 2 2 3 3 3 4 4 4 3 4 4 4 4 4 5 5 5 4 4 4 4 3 3 3 2 3 4 4 4
3 4 4 4 3 3 3 3 3 2 3 4 3 3 3 3 3 3 4 4 4 4 4 4 4 4 4 4 4 4 5 4 4 4 4 4 4 4 4 4 3 3 4 5
3 3 4 4 3 3 3 2 2 2 3 4 3 3 4 4 4 4 4 4 4 5 4 4 4 4 4 4 4 4 4 3 3 3 4 4 4 4 4 4 3 3 2 3
4 4 4 3 3 2 2 2 3 3 4 4 4 4 4 5 4 4 4 4 4 5 5 5 5 5 4 4 4 3 3 2 3 3 3 3 3 4 4 4 4 3 3 3
4 3 3 2 1 2 3 3 4 4 4 5 5 5 5 5 5 4 5 4 4 5 5 5 5 4 3 3 4 3 2 2 3 4 3 3 3 3 3 4 4 3 3 2
2 2 1 1 1 2 3 3 4 4 4 5 6 5 5 5 5 5 5 4 4 5 5 4 5 5 4 4 4 3 3 3 3 3 3 3 3 3 4 4 4 4 3 3
3 3 2 2 1 2 3 3 4 5 5 5 5 5 5 5 4 5 5 5 5 5 6 6 6 5 4 3 4 3 4 3 2 2 3 3 4 4 4 4 4 3 3 3
3 2 2 2 1 2 2 3 4 4 4 5 4 4 4 5 4 4 4 4 4 5 6 6 6 5 5 3 4 4 3 3 3 3 3 3 3 3 3 3 3 3 2 2
2 2 1 1 1 2 2 3 3 3 3 4 4 4 4 4 5 4 4 4 5 5 5 5 4 4 5 4 5 4 3 3 3 3 3 3 3 3 3 3 3 2 2 2
2 1 1 1 1 1 2 2 3 3 3 3 3 3 3 4 4 4 4 4 5 5 4 4 4 4 5 6 4 3 3 3 3 3 3 3 3 3 3 3 2 2 2 2
2 1 1 1 1 1 2 3 3 3 3 3 3 3 3 4 4 4 4 4 4 5 4 4 5 5 6 5 3 3 3 4 3 3 3 3 2 2 2 2 2 1 2 2
1 1 1 1 1 1 2 3 3 3 3 3 3 3 3 3 3 3 3 3 4 5 4 4 4 5 6 3 3 3 3 3 3 3 3 2 1 1 1 1 1 1 2 2
1 1 1 1 1 1 2 2 2 2 2 2 3 3 3 3 3 3 3 4 4 4 4 3 3 4 4 3 2 2 2 3 3 3 2 2 1 1 1 1 1 2 2 2
1 1 1 1 2 2 2 2 2 2 2 2 3 3 3 3 3 3 2 3 4 4 4 3 3 3 3 3 3 3 3 2 1 2 2 2 2 2 2 2 3 3 2 2
0 0 0 1 1 2 2 2 2 2 3 3 3 3 3 3 3 3 3 3 3 3 3 3 3 4 4 4 4 3 2 2 2 3 3 2 2 2 3 3 3 3 3 3
Wind_Direction
238 236 221 217 219 221 234 248 258 251 245 231 213 181 161 155 149 150 152 159 164 168 168 173 173 176 183 186 185 184 188 193 191 190 187 186 192 192 191 195 191 185 192 199
220 220 221 227 230 226 230 242 249 249 242 149 157 134 139 150 155 154 155 159 164 168 166 173 176 179 181 185 182 181 188 193 187 188 189 189 192 190 190 195 197 192 199 205
216 210 224 227 231 229 226 233 240 241 224 161 154 151 148 153 155 150 146 147 154 163 171 177 183 186 186 184 179 181 190 193 187 193 198 200 199 194 196 199 197 199 205 209
218 208 228 215 217 234 223 223 239 232 178 171 149 129 127 138 141 139 137 141 146 162 170 173 175 182 186 178 178 186 192 194 194 198 202 202 202 203 203 205 204 202 205 211
226 221 218 185 194 208 210 204 194 196 172 152 144 146 136 120 118 124 127 126 144 172 167 162 165 166 174 181 183 190 198 200 200 202 204 203 204 205 205 207 214 210 207 212
228 236 231 182 150 204 224 198 159 175 160 157 176 198 132 108 108 103 97 91 91 126 149 155 164 161 179 189 190 199 202 200 201 206 209 210 206 205 208 207 215 216 211 212
227 234 218 76 124 192 222 155 131 164 169 186 195 32 84 96 103 111 95 81 68 87 109 133 152 168 185 192 205 212 209 201 199 204 211 214 214 212 212 211 213 216 211 208
226 232 186 71 184 218 41 70 131 138 151 121 80 90 102 93 99 124 87 63 62 69 79 78 142 162 173 187 216 211 196 199 202 207 213 206 206 209 209 213 212 210 211 213
309 33 65 47 46 46 49 100 112 112 99 111 128 119 101 71 37 32 33 19 5 11 22 27 81 178 194 213 216 195 192 211 212 210 218 217 212 210 209 213 218 214 213 214
151 109 84 69 71 69 69 79 83 85 87 105 108 92 61 17 3 1 345 338 319 304 300 327 326 244 234 231 217 206 208 217 217 217 218 216 227 223 223 226 226 221 218 217
173 149 141 101 72 70 72 74 73 67 57 44 62 46 24 13 354 351 341 316 295 285 287 288 289 276 255 242 229 224 221 222 227 227 221 212 219 240 236 233 235 232 228 219
207 160 195 114 76 68 76 73 66 62 53 28 4 6 348 348 343 333 328 326 313 304 297 294 292 287 279 256 240 238 240 234 229 229 221 217 211 223 225 238 217 211 229 237
51 96 89 108 93 75 70 61 48 39 26 360 358 5 352 338 328 329 329 326 315 307 301 298 294 293 288 272 250 241 245 247 245 239 233 230 224 230 237 224 194 196 197 193
107 113 113 107 95 79 71 56 43 29 18 358 356 348 338 327 324 324 325 321 317 310 302 296 293 294 293 280 258 250 251 246 243 237 237 240 236 233 233 230 223 223 193 178
120 113 116 114 105 87 67 43 16 7 8 355 348 343 333 320 316 317 317 314 317 310 303 298 295 295 294 279 266 262 259 251 246 248 241 237 232 231 230 231 232 232 211 169
117 113 115 115 96 68 43 15 356 351 345 340 337 340 333 321 312 313 311 309 307 303 302 299 296 295 291 281 275 266 256 253 246 243 243 239 236 235 232 227 226 221 216 196
144 139 132 113 74 31 13 358 346 338 334 330 329 328 324 317 313 313 312 312 313 308 301 298 300 303 299 289 278 274 267 245 229 241 242 243 247 246 245 240 233 229 226 196
138 135 132 110 51 12 0 353 348 343 334 327 322 320 318 318 319 323 319 314 317 312 309 308 312 305 291 285 285 282 273 256 248 253 258 258 257 254 250 244 236 236 230 189
116 113 104 78 41 17 359 353 350 345 336 327 320 317 318 318 318 319 320 320 323 320 324 324 321 302 296 304 300 276 271 267 263 261 259 249 244 249 249 246 242 236 227 220
124 119 105 76 39 359 339 336 341 340 333 325 318 315 319 318 312 313 320 321 330 330 326 321 313 307 304 309 301 288 289 286 281 272 260 256 255 252 246 247 247 241 239 241
124 122 106 69 11 341 333 330 326 324 326 330 335 334 337 327 319 317 318 321 331 331 322 311 303 308 308 311 287 283 289 287 278 269 259 253 250 247 243 240 240 238 241 245
113 107 90 29 8 8 351 322 318 323 329 333 337 339 337 327 325 325 325 321 322 326 312 310 316 326 315 299 284 283 281 277 272 270 265 258 251 244 240 242 241 241 242 253
96 73 38 28 22 13 348 336 332 327 328 332 336 332 328 324 320 320 327 336 329 332 320 329 336 324 303 281 277 275 274 274 276 273 265 260 261 259 254 255 262 263 259 262
90 47 13 3 351 339 337 340 342 336 333 331 335 332 319 315 316 319 330 339 339 325 324 347 336 316 289 280 287 292 295 292 292 293 298 300 296 305 317 301 291 286 274 270
84 63 30 331 309 328 336 328 327 328 335 346 348 350 337 334 330 331 331 335 337 320 326 346 338 321 310 324 321 320 322 336 338 335 335 335 341 349 346 315 291 282 278 279
50 9 20 339 330 315 312 321 329 335 336 345 354 359 358 356 349 342 340 344 341 336 333 340 349 334 340 347 348 349 355 12 360 333 343 343 343 341 342 333 319 314 313 314
52 29 280 305 328 334 335 333 330 337 343 349 351 352 353 353 354 352 343 341 344 344 344 348 351 351 354 359 360 355 355 1 6 359 352 351 353 351 351 347 340 341 340 343